Current weather by "City, St" or "zip code"  
 

Current Conditions: PASCO

Mostly Cloudy


64.9 F

Last Updated on Jun 17 2024, 09:53 PM PDT
Humidity: 43%
Wind Speed: 12.8 mph
Barometer 29.95 in
Dewpoint: 42.1 F
Visibility: 10.00 mi
Precip: --
Heat Index: NA
Wind Chill: NA
Current conditions at:

PASCO (KPSC)

Lat: 46.27 Lon: 119.12

active severe weather and emergency alerts image image weather storm and storm spotter reports image weather observation monitoring service image
Active
Alerts
Storm Reports Obs
Monitoring

Sign-up For Email & Text Message Weather Alert Notification Services



Advertise Here

Observation History for PASCO


Time Wind
(mph)
Vis
(mi)
Weather Precip (in) Temperature (F) Relative
Humidity
Wind
Chill
(F)
Heat
Index
(F)
Pressure
Air Dwpt altimeter
(in)
sea level
(mb)
Rmks
09:53 PM PDT 12.8 10.00 Mostly Cloudy -- 64.9 42.1 43% NA NA 29.95 1014.2
08:53 PM PDT 0.0 10.00 Cloudy -- 64.0 46.9 54% NA NA 29.92 1013.2
07:53 PM PDT 13.9 10.00 Mostly Cloudy -- 66.0 46.0 48% NA NA 29.90 1012.5
06:53 PM PDT 10.00 Mostly Cloudy Trace 68.0 45.0 43% NA NA 29.89 1012.2
05:53 PM PDT 18.3 10.00 Mostly Cloudy -- 66.0 44.1 45% NA NA 29.88 1011.9
04:53 PM PDT SW 19.7 10.00 Mostly Cloudy and Windy Trace 72.0 44.1 37% NA 70.5 29.87 1011.5
03:53 PM PDT 16.1 10.00 Mostly Cloudy -- 73.0 43.0 34% NA 71.6 29.88 1011.9
02:53 PM PDT SW 11.4 10.00 Mostly Cloudy -- 71.1 41.0 34% NA 69.4 29.89 1012.2
01:53 PM PDT SW 11.4 10.00 Mostly Cloudy -- 69.1 39.0 33% NA NA 29.89 1012.2
12:53 PM PDT SW 13.9 10.00 Mostly Cloudy -- 69.1 37.0 31% NA NA 29.90 1012.5
11:53 AM PDT 13.9 10.00 Mostly Cloudy -- 68.0 37.0 32% NA NA 29.91 1012.9
08:53 AM PDT 6.9 10.00 Clear -- 63.0 37.9 40% NA NA 29.92 1013.2
05:53 AM PDT 0.0 10.00 Clear -- 44.1 39.0 82% NA NA 29.90 1012.5
04:53 AM PDT 0.0 10.00 NULL -- 42.1 39.0 89% NA NA 29.89 1012.2
03:53 AM PDT 0.0 10.00 Clear -- 45.0 39.0 80% NA NA 29.87 1011.5
02:53 AM PDT 0.0 10.00 Clear -- 46.0 39.9 79% NA NA 29.87 1011.5
01:53 AM PDT NW 3.4 10.00 Clear -- 46.0 41.0 82% 44.8 NA 29.87 1011.5
12:53 AM PDT 3.4 10.00 Clear -- 48.9 39.9 71% 48.2 NA 29.87 1011.5
11:53 PM PDT 6.9 10.00 Mostly Cloudy -- 55.0 39.0 55% NA NA 29.87 1011.5
10:53 PM PDT 6.9 10.00 Clear -- NULL 39.9 % NA NA 29.87 1011.5
09:53 PM PDT 3.4 10.00 Clear -- 54.0 39.9 59% NA NA 29.86 1011.2
08:53 PM PDT NW 8.1 10.00 Clear -- NULL 41.0 % NA NA 29.85 1010.8
06:53 PM PDT 0.0 10.00 Clear -- 69.1 27.0 21% NA NA 29.84 1010.5
05:53 PM PDT SW 4.7 10.00 Clear -- 69.1 24.1 18% NA NA 29.86 1011.2

Regional Weather Observation


PASCO (KPSC)

Mostly Cloudy
64.9 F

SUNNYSIDE (K1S5)

Clear
59.0 F

WALLA WALLA (KALW)

Cloudy
55.9 F

HERMISTON (KHRI)

Partly Cloudy
57.0 F

YAGABOND AAF (K1YT)

Clear
63.1 F

YAKIMA (KYKM)

Clear
57.0 F

Advertise Here


Advertise Here